Portada
METAR-TAF:

METAR-TAF

Aeroports :

Boscobel Airport

Boscobel, Wisconsin, Estats Units d'Amèrica

latitud: 43-09-22N, longitud: 090-40-39W, altitud: 205 m

Observació

L'informe es va fer fa 26 minuts, a les 11:53 UTC
Vent 7 kt del Sud/Sud-Oest
Temperatura 2°C
Humitat 75%
Pressió 1019 hPa
Visibilitat: 16.1 km
Cel clar

METAR: KOVS 161153Z AUTO 20007KT 10SM CLR 02/M02 A3008 RMK AO2 SLP192 T00221022 10033 20000 56013

Hora: 07:19 (12:19 UTC)


TAF: manca

Observacions i pronòstics meteorològics de més de 4000 aeroports (METAR i TAF).

Les estacions disponibles són els punts grocs i vermells al mapa.

Posi el ratolí al punt desitjat per veure el nom de l'estació.

Feu clic per veure les observacions i els pronòstics meteorològics.

Per canviar el mapa: feu clic els botons verds amb una creu de color negre per apropar; al botó verd amb un guió per allunyar la imatge; o en les fletxes verdes per a mapes adjacents.


METAR-TAF: